Regional Weather Roundup
Issued by NWS

Home | Current Version | Previous Version | Text Only | Print | Product List | Glossary On
Versions: 1 2 3 4 5 6 7 8 9 10 11 12 13 14 15 16 17 18 19 20 21 22 23 24 25 26 27 28 29 30 31 32 33 34 35 36 37 38 39 40 41 42 43 44 45 46 47 48 49 50
000
ASUS43 KOAX 211502
RWRNE

WEATHER ROUNDUP FOR NEBRASKA
NATIONAL WEATHER SERVICE OMAHA NE
1000 AM CDT THU AUG 21 2014

NOTES: SATELLITE DATA IS BEING USED TO AUGMENT CLOUD COVER ABOVE
       12000 FEET.
       "FAIR" INDICATES FEW OR NO CLOUDS BELOW 12,000 FEET WITH NO
       SIGNIFICANT WEATHER AND/OR OBSTRUCTIONS TO VISIBILITY.

  * THESE STATIONS DO NOT REPORT WEATHER SUCH AS RAIN...SNOW OR FOG.

NEZ001>004-019>022-054>056-211600-
NEBRASKA PANHANDLE

CITY           SKY/WX    TMP DP  RH WIND       PRES   REMARKS
SCOTTSBLUFF    SUNNY     69  52  54 W9        30.02R
ALLIANCE       SUNNY     74  54  49 N13       29.98S
CHADRON        MOSUNNY   72  59  63 CALM      29.97S
KIMBALL        SUNNY     71  48  44 NW18G24   30.04S
SIDNEY         SUNNY     73  50  44 NW16      30.02S
$$

NEZ057>060-069>072-079>082-211600-
SOUTHWEST NEBRASKA

CITY           SKY/WX    TMP DP  RH WIND       PRES   REMARKS
NORTH PLATTE   MOSUNNY   79  62  56 W5        29.88S
IMPERIAL       SUNNY     77  57  50 NW13      29.94R
LEXINGTON      MOSUNNY   76  68  75 SE5       29.86R
MCCOOK         MOSUNNY   79  60  52 E5        29.89R
OGALLALA       SUNNY     77  54  44 W10       29.93R
$$

NEZ005>010-023>029-035>040-094-211600-
NORTH CENTRAL NEBRASKA

CITY           SKY/WX    TMP DP  RH WIND       PRES   REMARKS
VALENTINE      MOSUNNY   74  62  66 N14       29.90S
AINSWORTH      PTSUNNY   69  62  80 N9        29.90S
BROKEN BOW     PTSUNNY   78  66  66 N9        29.86R
O`NEILL        MOSUNNY   74  71  88 NW10      29.84S
ORD            MOSUNNY   75  67  76 S5        29.82S
THEDFORD       MOSUNNY   74  61  65 N13       29.90S
$$

NEZ041-046>049-061>064-073>077-083>087-211600-
SOUTH CENTRAL NEBRASKA

CITY           SKY/WX    TMP DP  RH WIND       PRES   REMARKS
GRAND ISLAND   PTSUNNY   76  68  76 S13       29.84R
AURORA         PTSUNNY   76  70  82 S10G18    29.83F
HASTINGS       PTSUNNY   73  65  75 S13       29.84F
HEBRON         LGT RAIN  73  68  82 S3        29.88S
HOLDREGE       MOSUNNY   76  69  78 CALM      29.86R
KEARNEY *      MOSUNNY   77  70  78 S9        29.85S
YORK           PTSUNNY   73 N/A N/A S10       29.84F
$$

NEZ011>018-030>034-042>045-211600-
NORTHEAST NEBRASKA

CITY           SKY/WX    TMP DP  RH WIND       PRES   REMARKS
NORFOLK        SUNNY     80  67  64 SW10      29.82R
ALBION         MOSUNNY   77  68  72 S6        29.83S
BLAIR          CLOUDY    77  68  72 CALM      29.82R
FREMONT        PTSUNNY   81  68  63 SW7       29.82S
TEKAMAH        PTSUNNY   79  69  71 S5        29.80F
WAYNE          SUNNY     79  69  73 SW12      29.81R
$$

NEZ050>053-065>068-078-088>093-211600-
SOUTHEAST NEBRASKA

CITY           SKY/WX    TMP DP  RH WIND       PRES   REMARKS
LINCOLN        LGT RAIN  75  69  81 S13       29.83R
OMAHA EPPLEY   CLOUDY    79  69  71 E6        29.82R
BEATRICE       RAIN      76  70  81 CALM      29.89R
FALLS CITY     CLOUDY    81  71  71 S6        29.87F
NEBRASKA CITY  CLOUDY    75  69  80 SW9       29.87R
PLATTSMOUTH    DRIZZLE   75  68  79 S17G24    29.82R
$$

NEZ044-045-051>053-067-211600-
OMAHA AREA

CITY           SKY/WX    TMP DP  RH WIND       PRES   REMARKS
OMAHA EPPLEY   CLOUDY    79  69  71 E6        29.82R
BLAIR          CLOUDY    77  68  72 CALM      29.82R
FREMONT        PTSUNNY   81  68  63 SW7       29.82S
MILLARD        CLOUDY    79  69  72 CALM      29.82R
OFFUTT AFB     PTSUNNY   77  72  85 SW6       29.82R
PLATTSMOUTH    DRIZZLE   75  68  79 S17G24    29.82R
WAHOO          FAIR      79  66  64 SW12G20   29.81R
$$


USA.gov is the U.S. government's official web portal to all federal, state and local government web resources and services.